Regional Weather Roundup
Issued by NWS

Home | Current Version | Previous Version | Graphics & Text | Print | Product List | Glossary On
Versions: 1 2 3 4 5 6 7 8 9 10 11 12 13 14 15 16 17 18 19 20 21 22 23 24 25 26 27 28 29 30 31 32 33 34 35 36 37 38 39 40 41 42 43 44 45 46
000
ASUS45 KCYS 031210
RWRWY

WYOMING REGIONAL WEATHER ROUNDUP
NATIONAL WEATHER SERVICE CHEYENNE WY
600 AM MDT MON AUG 03 2015

NOTE:  "FAIR" INDICATES FEW OR NO CLOUDS BELOW 12,000 FEET
WITH NO SIGNIFICANT WEATHER AND/OR OBSTRUCTIONS TO VISIBILITY.

WYZ001-031300-
YELLOWSTONE NATIONAL PARK

CITY           SKY/WX    TMP DP  RH WIND       PRES   REMARKS
LK YELLOWSTONE   N/A     45  37  73 W3        30.26R
6HR MIN TEMP:  44; 6HR MAX TEMP:  51;

W YELLOWSTONE  NOT AVBL

$$
WYZ002>013-054>058-071-098>099-031300-
NORTHERN WYOMING

CITY           SKY/WX    TMP DP  RH WIND       PRES   REMARKS
JACKSON        CLEAR     50  43  76 CALM      30.12
CODY           FAIR      57  45  62 N5        30.07S
GREYBULL       FAIR      56  43  61 SE3       29.98S
6HR MIN TEMP:  56; 6HR MAX TEMP:  75;

WORLAND        FAIR      61  37  41 S13       30.00S
6HR MIN TEMP:  57; 6HR MAX TEMP:  73;

SHERIDAN       FAIR      52  45  77 NW3       30.01S
6HR MIN TEMP:  50; 6HR MAX TEMP:  63;

BUFFALO        FAIR      64  46  52 S6        30.08S
6HR MIN TEMP:  60; 6HR MAX TEMP:  67;

GILLETTE       FAIR      52  48  86 CALM      30.05S
6HR MIN TEMP:  52; 6HR MAX TEMP:  61;

HULETT         FAIR      55  48  76 CALM      30.07R
NEWCASTLE      FAIR      59  46  63 CALM      30.06S

$$
WYZ014>020-022>026-101>103-031300-
CENTRAL WYOMING

CITY           SKY/WX    TMP DP  RH WIND       PRES   REMARKS
BIG PINEY      FAIR      55  38  52 S3        30.18S
6HR MIN TEMP:  50; 6HR MAX TEMP:  62;

PINEDALE       FAIR      54  41  62 CALM      30.20R
DUBOIS         NOT AVBL
LANDER         FAIR      60  38  43 SW3       30.08S
6HR MIN TEMP:  57; 6HR MAX TEMP:  73;

RIVERTON       FAIR      65  49  56 NE6       30.08S
6HR MIN TEMP:  65; 6HR MAX TEMP:  74;

CASPER         FAIR      55  49  80 CALM      30.10R
6HR MIN TEMP:  55; 6HR MAX TEMP:  71;

DOUGLAS        FAIR      57  52  83 CALM      30.07R
6HR MIN TEMP:  57; 6HR MAX TEMP:  68;


$$
WYZ021-027>030-104>119-031300-
SOUTHERN WYOMING

CITY           SKY/WX    TMP DP  RH WIND       PRES   REMARKS
EVANSTON       CLOUDY    60  48  64 W13       30.15F
6HR MIN TEMP:  57; 6HR MAX TEMP:  66; 6HR PCP: TRACE;

KEMMERER       RAIN      61  41  48 S6        30.21R
FORT BRIDGER   CLOUDY    64  45  48 N3        30.19R
ROCK SPRINGS   CLOUDY    63  45  51 SE5       30.16F
6HR MIN TEMP:  62; 6HR MAX TEMP:  67;

DIXON          CLOUDY    61  47  58 SW3       30.21R
RAWLINS        FAIR      59  45  59 CALM      30.19R
6HR MIN TEMP:  59; 6HR MAX TEMP:  70;

SARATOGA       FAIR      59  43  55 CALM      30.21S
LARAMIE        FAIR      57  45  64 S6        30.21S
6HR MIN TEMP:  57; 6HR MAX TEMP:  63;

CHEYENNE       FAIR      60  49  66 W5        30.13S
6HR MIN TEMP:  58; 6HR MAX TEMP:  66;

TORRINGTON     FAIR      60  54  80 N5        30.01R
6HR MIN TEMP:  58; 6HR MAX TEMP:  66;

PINE BLUFFS    FAIR      55  50  82 CALM      30.08S

$$



USA.gov is the U.S. government's official web portal to all federal, state and local government web resources and services.